National Oceanic Atmosphere Administration National Weather Service Headquarters National Weather Service Headquarters
NOAA logo WFO Anchorage Scalable transition graphic NWS logo
Transition from title bar to navgation bar   Aviation Weather 14 AKDT 
blankspace Home   |   Mobile   |   Social Media   |   Mesonet   |   Surface Map   |   Radar   |   Submit Storm Reports =22 GMT 

LocalForecast by City, St or Zip Code

spacer

Forecasts/Products
  Public
  Forecast Discussion
    - With Glossary
  Aviation
  Marine
  Hydrology(RFC)
  Rivers & Lakes AHPS
  Ice Desk
  TV Weather
  Fire Weather
  Avalanche
  Travel 511
  Graphical
  xml logo RSS Feeds
  Marine FTPMail

spacer

Data
  Mesonet
  Model Graphics
  Local Model
  Observations
  Marine Obs
  Satellite/Radar
  Vent Factor
  Soaring Index
  Weather Links

spacer

Climate
  PAFC Climate
  Interactive Climate
  PAFC Records
  Local
  National
  More

spacer

Outreach
  About Us
  Community Outreach
  Kids' Page
  Tour/Speaker Request
  Weather Classroom
  Social Media

spacer

Reports
  COOP Observers
  Local Storm Reports
  Spotter Page
  Submit a Storm Report

spacer

Miscellaneous
  Archived Alaska Weather Stories
  Student Career Opportunities
  Research Papers

spacer

Print Friendly/
Low Bandwidth

  Public Forecasts
  Marine Forecasts

spacer

Contact Us
  mailto pafcweb

spacer

Facebook Follow the National Weather Service in Alaska on Twitter
USA.gov is the U.S. government's official web portal to all federal, state and local government web resources and services.


 ICAO ID:   AAWU Graphics

Internet access to TAFs and METAR observations is for planning purposes only. We can not guarantee the timeliness of internet products. Before flying please get a formal pilot briefing (1-800-992-7433) and ALWAYS file a Flight Plan!Pilot briefings are provided to licensed aircraft pilots, ONLY! Others may not use the above number to obtain weather information.

Check out the Key to TAFs and METARs for help with decoding the information.

A 12 hour summary of TAFs can be found here.

PAEN TAF
PAEN 301731Z 3018/3118  02007KT P6SM SCT070=


METAR PAEN 302153Z 34006KT 10SM CLR 14/04 A2959 RMK AO2 SLP021
    T01440039=
METAR PAEN 302153Z 34006KT 10SM CLR 14/04 A2959=
METAR PAEN 302053Z 02007KT 10SM CLR 13/03 A2959 RMK AO2 SLP024
    T01330033 58011=
METAR PAEN 302053Z 02007KT 10SM CLR 13/03 A2959=
METAR PAEN 301953Z 03005KT 10SM BKN065 12/04 A2961 RMK AO2 SLP029
     T01220039=
METAR PAEN 301953Z 03005KT 10SM BKN065 12/04 A2961=
METAR PAEN 301853Z 04006KT 10SM OVC070 10/04 A2962 RMK AO2 SLP032
     T01000039=
METAR PAEN 301853Z 04006KT 10SM OVC070 10/04 A2962=


National Weather Service
Anchorage Forecast Office
6930 Sand Lake Road
Anchorage, Ak 99502
(907) 266-5105 M-F/7-5pm
About Us
Career Opportunities
Glossary
Disclaimer
Privacy Policy
Credits
Alaska Weather Information Line:
1-800-472-0391